SDM2212 USTR-UNNT

Flight info

Callsign SDM2212
Flight time 1h 22m
Altitude 35000
Route NAPOR1R NAPOR T448 RUBOR A300 ML R814 SZ W1 GOLIM GOLIM1K
Aircraft B77W/H-SDE1E2E3FGHIJ2J3J4J5M1RWXY/LB1D1

Departure

Time 2026-04-25 05:26
Airport Roshchino International Airport (USTR)

Arrival

Time 2026-04-25 06:48
Airport Novosibirsk Tolmachevo Airport (UNNT)
Time Latitude Longitude Altitude Speed Heading
2026-04-25 05:09 57.18132 65.34675 345 ft 0 kts 74°
2026-04-25 05:16 57.18129 65.34657 345 ft 3 kts 66°
2026-04-25 05:16 57.18119 65.34628 345 ft 3 kts 37°
2026-04-25 05:16 57.18103 65.34612 355 ft 3 kts
2026-04-25 05:16 57.18084 65.34613 349 ft 3 kts 343°
2026-04-25 05:17 57.18065 65.34627 356 ft 3 kts 324°
2026-04-25 05:17 57.18056 65.34639 352 ft 0 kts 315°
2026-04-25 05:19 57.18068 65.34619 353 ft 11 kts 315°
2026-04-25 05:19 57.18140 65.34485 354 ft 15 kts 315°
2026-04-25 05:20 57.18205 65.34365 354 ft 13 kts 315°
2026-04-25 05:20 57.18267 65.34251 356 ft 13 kts 315°
2026-04-25 05:20 57.18328 65.34137 355 ft 13 kts 315°
2026-04-25 05:20 57.18390 65.34023 356 ft 13 kts 315°
2026-04-25 05:21 57.18451 65.33910 348 ft 13 kts 315°
2026-04-25 05:21 57.18513 65.33796 356 ft 13 kts 315°
2026-04-25 05:21 57.18574 65.33682 356 ft 13 kts 314°
2026-04-25 05:21 57.18621 65.33557 352 ft 12 kts 277°
2026-04-25 05:22 57.18619 65.33404 345 ft 12 kts 266°
2026-04-25 05:22 57.18574 65.33276 345 ft 13 kts 226°
2026-04-25 05:22 57.18506 65.33145 340 ft 15 kts 226°
2026-04-25 05:22 57.18476 65.32958 335 ft 16 kts 269°
2026-04-25 05:23 57.18472 65.32755 333 ft 16 kts 268°
2026-04-25 05:23 57.18468 65.32553 341 ft 16 kts 268°
2026-04-25 05:23 57.18465 65.32353 347 ft 16 kts 268°
2026-04-25 05:23 57.18466 65.32205 347 ft 12 kts 280°
2026-04-25 05:24 57.18522 65.32096 350 ft 12 kts 319°
2026-04-25 05:24 57.18584 65.31995 360 ft 12 kts 318°
2026-04-25 05:24 57.18636 65.31907 357 ft 9 kts 317°
2026-04-25 05:24 57.18682 65.31828 354 ft 10 kts 317°
2026-04-25 05:25 57.18698 65.31722 354 ft 9 kts 246°
2026-04-25 05:25 57.18642 65.31592 361 ft 25 kts 228°
2026-04-25 05:25 57.18360 65.31021 366 ft 105 kts 227°
2026-04-25 05:25 57.17681 65.29658 390 ft 180 kts 227°
2026-04-25 05:26 57.16815 65.27937 1215 ft 180 kts 226°
2026-04-25 05:26 57.15769 65.26689 2128 ft 186 kts 190°
2026-04-25 05:26 57.14442 65.27132 2492 ft 214 kts 148°
2026-04-25 05:26 57.13456 65.29395 2827 ft 243 kts 112°
2026-04-25 05:27 57.13153 65.32543 3469 ft 256 kts 95°
2026-04-25 05:27 57.13082 65.35880 4290 ft 265 kts 93°
2026-04-25 05:27 57.13031 65.39312 5169 ft 271 kts 94°
2026-04-25 05:27 57.12979 65.42820 6020 ft 278 kts 94°
2026-04-25 05:28 57.12924 65.46409 6872 ft 283 kts 95°
2026-04-25 05:28 57.12868 65.50071 7732 ft 289 kts 95°
2026-04-25 05:28 57.12807 65.53791 8593 ft 293 kts 95°
2026-04-25 05:28 57.12739 65.57536 9395 ft 299 kts 95°
2026-04-25 05:29 57.12666 65.61409 10133 ft 307 kts 96°
2026-04-25 05:29 57.12581 65.65498 10461 ft 334 kts 96°
2026-04-25 05:29 57.12482 65.69956 10686 ft 363 kts 96°
2026-04-25 05:29 57.12379 65.74766 11015 ft 387 kts 96°
2026-04-25 05:30 57.12273 65.79807 11807 ft 399 kts 96°
2026-04-25 05:30 57.12165 65.84964 12743 ft 407 kts 96°
2026-04-25 05:30 57.12051 65.90214 13719 ft 414 kts 96°
2026-04-25 05:30 57.11929 65.95564 14679 ft 421 kts 97°
2026-04-25 05:31 57.11804 66.00978 15592 ft 427 kts 97°
2026-04-25 05:31 57.11672 66.06489 16436 ft 435 kts 97°
2026-04-25 05:31 57.11535 66.12039 17264 ft 443 kts 98°
2026-04-25 05:31 57.11267 66.17708 18094 ft 446 kts 102°
2026-04-25 05:32 57.10868 66.23413 18907 ft 452 kts 103°
2026-04-25 05:32 57.10447 66.29169 19711 ft 457 kts 103°
2026-04-25 05:32 57.10018 66.35004 20497 ft 462 kts 103°
2026-04-25 05:32 57.09589 66.40889 21249 ft 468 kts 104°
2026-04-25 05:33 57.09163 66.46811 21958 ft 473 kts 104°
2026-04-25 05:33 57.08730 66.52840 22671 ft 478 kts 104°
2026-04-25 05:33 57.08290 66.58939 23326 ft 484 kts 104°
2026-04-25 05:33 57.07843 66.65100 23985 ft 489 kts 104°
2026-04-25 05:34 57.07390 66.71322 24609 ft 494 kts 104°
2026-04-25 05:34 57.06929 66.77617 25235 ft 497 kts 104°
2026-04-25 05:34 57.06465 66.83942 25871 ft 500 kts 104°
2026-04-25 05:34 57.05991 66.90295 26454 ft 503 kts 105°
2026-04-25 05:35 57.05493 66.96683 26996 ft 506 kts 105°
2026-04-25 05:35 57.04953 67.03098 27506 ft 510 kts 106°
2026-04-25 05:35 57.04390 67.09554 27986 ft 513 kts 106°
2026-04-25 05:35 57.03818 67.16035 28495 ft 515 kts 107°
2026-04-25 05:36 57.03242 67.22547 28955 ft 518 kts 106°
2026-04-25 05:36 57.02665 67.29086 29360 ft 521 kts 107°
2026-04-25 05:36 57.02089 67.35593 29733 ft 523 kts 107°
2026-04-25 05:36 57.01507 67.42178 30184 ft 523 kts 107°
2026-04-25 05:37 57.00927 67.48755 30688 ft 521 kts 107°
2026-04-25 05:37 57.00346 67.55302 31193 ft 520 kts 107°
2026-04-25 05:37 56.99760 67.61835 31652 ft 519 kts 107°
2026-04-25 05:37 56.99171 67.68362 32120 ft 518 kts 107°
2026-04-25 05:38 56.98579 67.74866 32561 ft 517 kts 107°
2026-04-25 05:38 56.97983 67.81366 32978 ft 516 kts 107°
2026-04-25 05:38 56.97386 67.87853 33440 ft 515 kts 107°
2026-04-25 05:38 56.96786 67.94328 33849 ft 514 kts 107°
2026-04-25 05:39 56.96184 68.00787 34246 ft 513 kts 107°
2026-04-25 05:39 56.95579 68.07234 34616 ft 513 kts 106°
2026-04-25 05:39 56.94977 68.13601 34906 ft 514 kts 106°
2026-04-25 05:39 56.94365 68.20056 35263 ft 514 kts 106°
2026-04-25 05:40 56.93750 68.26497 35603 ft 513 kts 105°
2026-04-25 05:40 56.93131 68.32941 35953 ft 512 kts 105°
2026-04-25 05:40 56.92510 68.39374 36250 ft 512 kts 105°
2026-04-25 05:40 56.91888 68.45809 36510 ft 513 kts 105°
2026-04-25 05:41 56.91262 68.52247 36694 ft 515 kts 105°
2026-04-25 05:41 56.89993 68.65142 36760 ft 514 kts 105°
2026-04-25 05:42 56.88714 68.77950 36762 ft 515 kts 105°
2026-04-25 05:42 56.87421 68.90834 36761 ft 514 kts 105°
2026-04-25 05:43 56.86111 69.03679 36757 ft 514 kts 105°
2026-04-25 05:43 56.84791 69.16530 36762 ft 514 kts 105°
2026-04-25 05:44 56.83466 69.29320 36781 ft 515 kts 105°
2026-04-25 05:44 56.82121 69.42140 36782 ft 514 kts 105°
2026-04-25 05:45 56.80764 69.54936 36788 ft 513 kts 105°
2026-04-25 05:45 56.79393 69.67727 36798 ft 512 kts 105°
2026-04-25 05:46 56.78014 69.80470 36814 ft 512 kts 105°
2026-04-25 05:46 56.76623 69.93203 36819 ft 512 kts 105°
2026-04-25 05:47 56.75224 70.05835 36830 ft 512 kts 105°
2026-04-25 05:47 56.73810 70.18550 36820 ft 512 kts 105°
2026-04-25 05:48 56.72342 70.31244 36818 ft 512 kts 107°
2026-04-25 05:48 56.70788 70.43881 36828 ft 512 kts 107°
2026-04-25 05:49 56.69212 70.56523 36830 ft 512 kts 107°
2026-04-25 05:49 56.67639 70.69156 36823 ft 512 kts 107°
2026-04-25 05:50 56.66058 70.81782 36828 ft 512 kts 107°
2026-04-25 05:50 56.64476 70.94334 36828 ft 512 kts 107°
2026-04-25 05:51 56.62868 71.06948 36832 ft 512 kts 107°
2026-04-25 05:51 56.61248 71.19555 36828 ft 512 kts 107°
2026-04-25 05:52 56.59617 71.32143 36817 ft 512 kts 107°
2026-04-25 05:52 56.57973 71.44714 36817 ft 512 kts 107°
2026-04-25 05:53 56.56314 71.57292 36835 ft 512 kts 107°
2026-04-25 05:53 56.54653 71.69784 36825 ft 512 kts 107°
2026-04-25 05:54 56.52971 71.82326 36826 ft 512 kts 107°
2026-04-25 05:54 56.50428 72.01088 36828 ft 511 kts 107°
2026-04-25 05:55 56.48722 72.13555 36834 ft 510 kts 107°
2026-04-25 05:55 56.47012 72.25942 36834 ft 510 kts 108°
2026-04-25 05:56 56.45276 72.38413 36834 ft 511 kts 108°
2026-04-25 05:56 56.43528 72.50866 36833 ft 510 kts 108°
2026-04-25 05:57 56.41770 72.63301 36832 ft 510 kts 108°
2026-04-25 05:57 56.39999 72.75712 36834 ft 510 kts 108°
2026-04-25 05:58 56.38209 72.88047 36834 ft 511 kts 108°
2026-04-25 05:58 56.36409 73.00458 36833 ft 511 kts 108°
2026-04-25 05:59 56.34601 73.12873 36842 ft 511 kts 108°
2026-04-25 05:59 56.32781 73.25270 36844 ft 512 kts 108°
2026-04-25 06:00 56.30946 73.37660 36838 ft 512 kts 108°
2026-04-25 06:00 56.29106 73.49971 36852 ft 511 kts 108°
2026-04-25 06:01 56.27251 73.62321 36873 ft 510 kts 108°
2026-04-25 06:01 56.25385 73.74640 36882 ft 510 kts 108°
2026-04-25 06:02 56.23512 73.86927 36882 ft 509 kts 108°
2026-04-25 06:02 56.21923 73.97116 36880 ft 508 kts 109°
2026-04-25 06:03 56.19784 74.09192 36881 ft 506 kts 111°
2026-04-25 06:03 56.17206 74.23141 36881 ft 506 kts 111°
2026-04-25 06:04 56.15365 74.33205 36875 ft 506 kts 111°
2026-04-25 06:04 56.13194 74.45157 36881 ft 507 kts 111°
2026-04-25 06:05 56.11002 74.57190 36882 ft 509 kts 111°
2026-04-25 06:05 56.08790 74.69255 36882 ft 510 kts 111°
2026-04-25 06:06 56.06560 74.81318 36880 ft 510 kts 111°
2026-04-25 06:06 56.04314 74.93385 36882 ft 511 kts 111°
2026-04-25 06:07 56.02056 75.05442 36879 ft 512 kts 111°
2026-04-25 06:07 55.99785 75.17499 36880 ft 510 kts 111°
2026-04-25 06:08 55.97530 75.29392 36879 ft 507 kts 111°
2026-04-25 06:08 55.95260 75.41277 36883 ft 503 kts 111°
2026-04-25 06:09 55.92995 75.53081 36886 ft 501 kts 111°
2026-04-25 06:09 55.90725 75.64839 36884 ft 500 kts 112°
2026-04-25 06:10 55.88445 75.76558 36888 ft 501 kts 112°
2026-04-25 06:10 55.86164 75.88217 36894 ft 502 kts 112°
2026-04-25 06:11 55.83856 75.99954 36892 ft 502 kts 112°
2026-04-25 06:11 55.81535 76.11675 36894 ft 503 kts 112°
2026-04-25 06:12 55.79198 76.23418 36904 ft 504 kts 112°
2026-04-25 06:12 55.76851 76.35149 36898 ft 505 kts 112°
2026-04-25 06:13 55.74485 76.46886 36901 ft 504 kts 112°
2026-04-25 06:14 55.70922 76.64443 36937 ft 503 kts 112°
2026-04-25 06:14 55.68552 76.76032 36934 ft 503 kts 112°
2026-04-25 06:15 55.66160 76.87677 36934 ft 502 kts 112°
2026-04-25 06:15 55.63755 76.99293 36937 ft 502 kts 112°
2026-04-25 06:16 55.61344 77.10874 36946 ft 502 kts 112°
2026-04-25 06:16 55.58924 77.22436 36998 ft 500 kts 112°
2026-04-25 06:17 55.56497 77.33972 37068 ft 500 kts 112°
2026-04-25 06:17 55.54057 77.45505 37076 ft 502 kts 112°
2026-04-25 06:18 55.51598 77.57057 37077 ft 504 kts 112°
2026-04-25 06:18 55.49134 77.68572 37074 ft 505 kts 113°
2026-04-25 06:19 55.46641 77.80155 37075 ft 506 kts 113°
2026-04-25 06:19 55.44134 77.91742 37073 ft 505 kts 113°
2026-04-25 06:20 55.41621 78.03300 37075 ft 506 kts 113°
2026-04-25 06:20 55.39096 78.14855 37075 ft 505 kts 113°
2026-04-25 06:21 55.36592 78.26402 37072 ft 505 kts 110°
2026-04-25 06:21 55.34937 78.38327 37069 ft 506 kts 99°
2026-04-25 06:22 55.33998 78.50575 37066 ft 505 kts 98°
2026-04-25 06:22 55.33055 78.62799 37062 ft 505 kts 99°
2026-04-25 06:23 55.32072 78.75004 37064 ft 505 kts 99°
2026-04-25 06:23 55.31058 78.87226 37065 ft 505 kts 99°
2026-04-25 06:24 55.30035 78.99350 37068 ft 505 kts 99°
2026-04-25 06:24 55.28997 79.11544 37073 ft 505 kts 99°
2026-04-25 06:25 55.27947 79.23725 37074 ft 505 kts 99°
2026-04-25 06:25 55.26885 79.35908 37073 ft 505 kts 99°
2026-04-25 06:26 55.25811 79.48080 37075 ft 505 kts 99°
2026-04-25 06:26 55.24723 79.60276 37071 ft 506 kts 99°
2026-04-25 06:27 55.23621 79.72475 37075 ft 506 kts 99°
2026-04-25 06:27 55.22525 79.84480 36936 ft 494 kts 99°
2026-04-25 06:27 55.21984 79.90355 36525 ft 487 kts 99°
2026-04-25 06:28 55.21443 79.96220 35690 ft 489 kts 99°
2026-04-25 06:28 55.20888 80.02166 34560 ft 499 kts 99°
2026-04-25 06:28 55.20324 80.08184 33610 ft 502 kts 99°
2026-04-25 06:28 55.19754 80.14227 32734 ft 503 kts 99°
2026-04-25 06:29 55.19180 80.20296 31769 ft 506 kts 99°
2026-04-25 06:29 55.18603 80.26361 30903 ft 505 kts 99°
2026-04-25 06:29 55.18025 80.32407 30227 ft 501 kts 99°
2026-04-25 06:29 55.17450 80.38391 29643 ft 495 kts 99°
2026-04-25 06:30 55.16885 80.44223 29068 ft 489 kts 99°
2026-04-25 06:30 55.16351 80.50146 28419 ft 482 kts 96°
2026-04-25 06:30 55.16139 80.55898 27457 ft 469 kts 89°
2026-04-25 06:30 55.16217 80.61570 26270 ft 464 kts 88°
2026-04-25 06:31 55.16293 80.67112 25007 ft 461 kts 88°
2026-04-25 06:31 55.16356 80.72735 23897 ft 465 kts 88°
2026-04-25 06:31 55.16406 80.78366 23336 ft 460 kts 89°
2026-04-25 06:31 55.16447 80.83939 22736 ft 456 kts 89°
2026-04-25 06:32 55.16481 80.89464 22149 ft 452 kts 89°
2026-04-25 06:32 55.16511 80.94953 21563 ft 449 kts 89°
2026-04-25 06:32 55.16537 81.00387 20983 ft 445 kts 89°
2026-04-25 06:32 55.16559 81.05794 20404 ft 442 kts 89°
2026-04-25 06:33 55.16581 81.11140 19830 ft 438 kts 89°
2026-04-25 06:33 55.16601 81.16449 19262 ft 435 kts 90°
2026-04-25 06:33 55.16618 81.21723 18677 ft 433 kts 90°
2026-04-25 06:33 55.16633 81.26975 18114 ft 430 kts 90°
2026-04-25 06:34 55.16646 81.32180 17543 ft 427 kts 90°
2026-04-25 06:34 55.16656 81.37355 16961 ft 424 kts 90°
2026-04-25 06:34 55.16664 81.42439 16416 ft 421 kts 90°
2026-04-25 06:34 55.16671 81.47545 15850 ft 419 kts 90°
2026-04-25 06:35 55.16674 81.52623 15285 ft 416 kts 90°
2026-04-25 06:35 55.16675 81.57667 14723 ft 413 kts 90°
2026-04-25 06:35 55.16674 81.62671 14157 ft 410 kts 90°
2026-04-25 06:35 55.16670 81.67639 13602 ft 407 kts 90°
2026-04-25 06:36 55.16666 81.72578 13039 ft 404 kts 90°
2026-04-25 06:36 55.16660 81.77489 12482 ft 402 kts 90°
2026-04-25 06:36 55.16651 81.82360 11929 ft 399 kts 90°
2026-04-25 06:36 55.16641 81.87200 11378 ft 396 kts 90°
2026-04-25 06:37 55.16630 81.92003 10894 ft 391 kts 91°
2026-04-25 06:37 55.16616 81.96680 10737 ft 378 kts 91°
2026-04-25 06:37 55.16602 82.01199 10560 ft 366 kts 91°
2026-04-25 06:37 55.16588 82.05519 10424 ft 354 kts 91°
2026-04-25 06:38 55.16570 82.09762 10265 ft 343 kts 91°
2026-04-25 06:38 55.16551 82.13876 10120 ft 333 kts 91°
2026-04-25 06:38 55.16533 82.17872 9904 ft 325 kts 91°
2026-04-25 06:38 55.16513 82.21770 9720 ft 318 kts 91°
2026-04-25 06:39 55.16493 82.25592 9535 ft 310 kts 91°
2026-04-25 06:39 55.16472 82.29344 9181 ft 309 kts 91°
2026-04-25 06:39 55.16449 82.33167 8655 ft 316 kts 92°
2026-04-25 06:39 55.16426 82.36956 8493 ft 304 kts 92°
2026-04-25 06:40 55.16403 82.40590 7964 ft 299 kts 92°
2026-04-25 06:40 55.16378 82.44208 7470 ft 294 kts 92°
2026-04-25 06:40 55.16354 82.47715 7123 ft 284 kts 92°
2026-04-25 06:40 55.16329 82.51168 6810 ft 283 kts 92°
2026-04-25 06:41 55.16302 82.54600 6487 ft 282 kts 92°
2026-04-25 06:41 55.16275 82.58042 6086 ft 284 kts 92°
2026-04-25 06:41 55.16248 82.61472 5718 ft 286 kts 92°
2026-04-25 06:41 55.16221 82.64941 5392 ft 284 kts 92°
2026-04-25 06:42 55.16192 82.68413 5053 ft 284 kts 92°
2026-04-25 06:42 55.16163 82.71870 4735 ft 284 kts 92°
2026-04-25 06:42 55.16132 82.75307 4410 ft 282 kts 92°
2026-04-25 06:42 55.16100 82.78635 4239 ft 262 kts 92°
2026-04-25 06:43 55.16065 82.81747 4157 ft 257 kts 92°
2026-04-25 06:43 55.15818 82.84797 4009 ft 251 kts 116°
2026-04-25 06:43 55.14762 82.87077 3937 ft 237 kts 149°
2026-04-25 06:43 55.13301 82.88305 3723 ft 232 kts 163°
2026-04-25 06:44 55.11786 82.89092 3443 ft 229 kts 170°
2026-04-25 06:44 55.10236 82.89231 3141 ft 221 kts 187°
2026-04-25 06:44 55.08719 82.88905 2896 ft 219 kts 188°
2026-04-25 06:44 55.07216 82.88575 2644 ft 218 kts 188°
2026-04-25 06:45 55.05714 82.88256 2353 ft 213 kts 188°
2026-04-25 06:45 55.04349 82.87632 2085 ft 198 kts 215°
2026-04-25 06:45 55.03494 82.85872 2015 ft 189 kts 246°
2026-04-25 06:45 55.03090 82.83752 2055 ft 180 kts 253°
2026-04-25 06:46 55.02788 82.81740 1941 ft 161 kts 256°
2026-04-25 06:46 55.02594 82.79901 1770 ft 151 kts 259°
2026-04-25 06:46 55.02435 82.78142 1573 ft 144 kts 259°
2026-04-25 06:46 55.02278 82.76436 1374 ft 143 kts 259°
2026-04-25 06:47 55.02123 82.74723 1198 ft 144 kts 259°
2026-04-25 06:47 55.01967 82.73010 989 ft 145 kts 259°
2026-04-25 06:47 55.01871 82.71839 855 ft 143 kts 260°
2026-04-25 06:47 55.01658 82.69591 638 ft 143 kts 262°
2026-04-25 06:48 55.01506 82.67864 422 ft 145 kts 260°
2026-04-25 06:48 55.01353 82.66199 377 ft 123 kts 259°
2026-04-25 06:48 55.01241 82.65043 377 ft 70 kts 260°
2026-04-25 06:48 55.01202 82.64625 378 ft 36 kts 261°
2026-04-25 06:49 55.01181 82.64393 378 ft 16 kts 261°
2026-04-25 06:49 55.01165 82.64207 380 ft 16 kts 261°
2026-04-25 06:49 55.01150 82.64048 379 ft 9 kts 256°
2026-04-25 06:49 55.01101 82.63993 380 ft 9 kts 183°
2026-04-25 06:50 55.01031 82.64005 379 ft 11 kts 174°
2026-04-25 06:50 55.00950 82.64001 378 ft 12 kts 207°
2026-04-25 06:50 55.00924 82.63867 378 ft 12 kts 262°
2026-04-25 06:50 55.00890 82.63759 378 ft 10 kts 200°
2026-04-25 06:51 55.00828 82.63774 378 ft 5 kts 170°
2026-04-25 06:51 55.00826 82.63774 378 ft 0 kts 170°